• în România
  • Lista ţărilor
  • Pe 7 zile
  • Temperatura apei
  • Hartă satelitară
  • Meteo pe hartă
  • Widget-uri
  • user-avatar
    Intrare

    Meteo pe oră la Novospasskoe

    Astăzi, 20 Mai, Duminică

    Timp Temperatura Precipitaţii Vânt Presiune Umiditate
    00:00 +12°C° 0 mm 2 m/s 741 mmHg 96%
    01:00 +10°C° 0 mm 2 m/s 741 mmHg 97%
    02:00 +10°C° 0 mm 2 m/s 742 mmHg 97%
    03:00 +10°C° 0 mm 2 m/s 742 mmHg 97%
    04:00 +10°C° 0 mm 2 m/s 742 mmHg 96%
    05:00 +10°C° 0 mm 3 m/s 743 mmHg 96%
    06:00 +10°C° 0 mm 3 m/s 743 mmHg 95%
    07:00 +11°C° 0 mm 3 m/s 743 mmHg 93%
    08:00 +12°C° 0 mm 2 m/s 744 mmHg 90%
    09:00 +13°C° 0 mm 2 m/s 744 mmHg 88%
    10:00 +14°C° 0 mm 2 m/s 744 mmHg 87%
    11:00 +14°C° 0 mm 2 m/s 744 mmHg 85%
    12:00 +15°C° 0 mm 2 m/s 745 mmHg 83%
    13:00 +16°C° 0,1 mm 3 m/s 745 mmHg 82%
    14:00 +16°C° 0,1 mm 3 m/s 745 mmHg 81%
    15:00 +17°C° 0,1 mm 3 m/s 745 mmHg 80%
    16:00 +15°C° 0,1 mm 4 m/s 745 mmHg 81%
    17:00 +15°C° 0,1 mm 4 m/s 745 mmHg 83%
    18:00 +15°C° 0,1 mm 5 m/s 745 mmHg 84%
    19:00 +14°C° 0 mm 5 m/s 746 mmHg 85%
    20:00 +13°C° 0 mm 5 m/s 746 mmHg 86%
    21:00 +12°C° 0 mm 5 m/s 746 mmHg 87%
    22:00 +12°C° 0 mm 5 m/s 747 mmHg 85%
    23:00 +12°C° 0 mm 5 m/s 747 mmHg 82%

    Mâine, 21 Mai, Luni

    Timp Temperatura Precipitaţii Vânt Presiune Umiditate
    00:00 +11°C° 0 mm 6 m/s 747 mmHg 79%
    01:00 +12°C° 0 mm 5 m/s 747 mmHg 80%
    02:00 +10°C° 0 mm 5 m/s 748 mmHg 80%
    03:00 +10°C° 0 mm 5 m/s 748 mmHg 80%
    04:00 +9°C° 0,1 mm 6 m/s 748 mmHg 81%
    05:00 +9°C° 0,1 mm 6 m/s 748 mmHg 81%
    06:00 +9°C° 0,1 mm 6 m/s 749 mmHg 82%
    07:00 +9°C° 0,1 mm 6 m/s 749 mmHg 80%
    08:00 +10°C° 0,1 mm 7 m/s 749 mmHg 78%
    09:00 +10°C° 0,1 mm 7 m/s 749 mmHg 76%
    10:00 +11°C° 0 mm 7 m/s 749 mmHg 74%
    11:00 +11°C° 0 mm 7 m/s 750 mmHg 72%
    12:00 +12°C° 0 mm 7 m/s 750 mmHg 71%
    13:00 +12°C° 0 mm 7 m/s 750 mmHg 70%
    14:00 +14°C° 0 mm 7 m/s 750 mmHg 69%
    15:00 +14°C° 0 mm 7 m/s 750 mmHg 68%
    16:00 +14°C° 0 mm 7 m/s 750 mmHg 69%
    17:00 +14°C° 0 mm 6 m/s 750 mmHg 71%
    18:00 +15°C° 0 mm 6 m/s 750 mmHg 72%
    19:00 +14°C° 0 mm 6 m/s 750 mmHg 73%
    20:00 +14°C° 0 mm 6 m/s 750 mmHg 73%
    21:00 +13°C° 0 mm 6 m/s 750 mmHg 74%
    22:00 +13°C° 0 mm 6 m/s 750 mmHg 75%
    23:00 +13°C° 0 mm 6 m/s 750 mmHg 76%

    Poimâine, 22 Mai, Marţi

    Timp Temperatura Precipitaţii Vânt Presiune Umiditate
    00:00 +13°C° 0 mm 6 m/s 750 mmHg 77%
    01:00 +13°C° 0,2 mm 6 m/s 750 mmHg 79%
    02:00 +11°C° 0,2 mm 6 m/s 750 mmHg 81%
    03:00 +11°C° 0,2 mm 6 m/s 750 mmHg 83%
    04:00 +11°C° 0 mm 6 m/s 750 mmHg 83%
    05:00 +11°C° 0 mm 6 m/s 751 mmHg 84%
    06:00 +10°C° 0 mm 6 m/s 751 mmHg 84%
    07:00 +11°C° 0 mm 6 m/s 751 mmHg 83%
    08:00 +14°C° 0 mm 6 m/s 751 mmHg 82%
    09:00 +15°C° 0 mm 6 m/s 751 mmHg 81%
    10:00 +15°C° 0 mm 6 m/s 751 mmHg 81%
    11:00 +16°C° 0 mm 6 m/s 751 mmHg 80%
    12:00 +17°C° 0 mm 6 m/s 751 mmHg 79%
    13:00 +17°C° 0 mm 5 m/s 751 mmHg 81%
    14:00 +19°C° 0 mm 4 m/s 751 mmHg 82%
    15:00 +19°C° 0 mm 4 m/s 751 mmHg 83%
    16:00 +19°C° 0 mm 3 m/s 751 mmHg 84%
    17:00 +19°C° 0 mm 3 m/s 750 mmHg 85%
    18:00 +19°C° 0 mm 2 m/s 750 mmHg 87%
    19:00 +18°C° 0 mm 2 m/s 750 mmHg 89%
    20:00 +18°C° 0 mm 2 m/s 751 mmHg 91%
    21:00 +17°C° 0 mm 2 m/s 751 mmHg 93%
    22:00 +17°C° 0,3 mm 2 m/s 751 mmHg 94%
    23:00 +17°C° 0,3 mm 2 m/s 751 mmHg 94%

    23 Mai, Miercuri

    Timp Temperatura Precipitaţii Vânt Presiune Umiditate
    00:00 +16°C° 0,3 mm 2 m/s 751 mmHg 95%
    01:00 +16°C° 0,1 mm 2 m/s 751 mmHg 95%
    02:00 +15°C° 0,1 mm 2 m/s 751 mmHg 96%
    03:00 +15°C° 0,1 mm 1 m/s 751 mmHg 96%
    04:00 +15°C° 0,1 mm 1 m/s 751 mmHg 96%
    05:00 +15°C° 0,1 mm 1 m/s 751 mmHg 96%
    06:00 +16°C° 0,1 mm 1 m/s 751 mmHg 95%
    07:00 +18°C° 0 mm 1 m/s 751 mmHg 91%
    08:00 +20°C° 0 mm 1 m/s 751 mmHg 87%
    09:00 +21°C° 0 mm 1 m/s 751 mmHg 83%
    10:00 +22°C° 0,2 mm 1 m/s 751 mmHg 79%
    11:00 +23°C° 0,2 mm 2 m/s 750 mmHg 76%
    12:00 +24°C° 0,2 mm 2 m/s 750 mmHg 73%
    13:00 +25°C° 0,5 mm 2 m/s 750 mmHg 70%
    14:00 +25°C° 0,5 mm 2 m/s 750 mmHg 67%
    15:00 +26°C° 0,5 mm 3 m/s 749 mmHg 64%
    16:00 +26°C° 0,4 mm 2 m/s 749 mmHg 66%
    17:00 +25°C° 0,4 mm 2 m/s 749 mmHg 69%
    18:00 +25°C° 0,4 mm 2 m/s 748 mmHg 72%
    19:00 +24°C° 0,3 mm 2 m/s 748 mmHg 77%
    20:00 +22°C° 0,3 mm 1 m/s 748 mmHg 82%
    21:00 +20°C° 0,3 mm 1 m/s 748 mmHg 87%
    22:00 +20°C° 0,5 mm 1 m/s 748 mmHg 88%
    23:00 +19°C° 0,5 mm 1 m/s 747 mmHg 90%

    24 Mai, Joi

    Timp Temperatura Precipitaţii Vânt Presiune Umiditate
    00:00 +18°C° 0,5 mm 2 m/s 747 mmHg 92%
    01:00 +19°C° 0,3 mm 1 m/s 747 mmHg 92%
    02:00 +19°C° 0,3 mm 1 m/s 747 mmHg 93%
    03:00 +18°C° 0,3 mm 1 m/s 747 mmHg 94%
    04:00 +19°C° 0,1 mm 1 m/s 746 mmHg 94%
    05:00 +19°C° 0,1 mm 1 m/s 746 mmHg 93%
    06:00 +19°C° 0,1 mm 1 m/s 746 mmHg 93%
    07:00 +20°C° 0,7 mm 1 m/s 746 mmHg 89%
    08:00 +20°C° 0,7 mm 2 m/s 746 mmHg 85%
    09:00 +23°C° 0,7 mm 2 m/s 746 mmHg 81%
    10:00 +23°C° 1 mm 2 m/s 745 mmHg 77%
    11:00 +24°C° 1 mm 3 m/s 745 mmHg 73%
    12:00 +25°C° 1 mm 4 m/s 745 mmHg 69%
    13:00 +25°C° 1 mm 4 m/s 745 mmHg 69%
    14:00 +25°C° 1 mm 4 m/s 745 mmHg 69%
    15:00 +25°C° 1 mm 4 m/s 745 mmHg 70%
    16:00 +24°C° 0,2 mm 3 m/s 744 mmHg 72%
    17:00 +24°C° 0,2 mm 3 m/s 744 mmHg 74%
    18:00 +24°C° 0,2 mm 2 m/s 744 mmHg 75%
    19:00 +23°C° 0,2 mm 2 m/s 744 mmHg 79%
    20:00 +20°C° 0,2 mm 2 m/s 744 mmHg 82%
    21:00 +19°C° 0,2 mm 2 m/s 744 mmHg 85%
    22:00 +18°C° 0,8 mm 2 m/s 744 mmHg 87%
    23:00 +18°C° 0,8 mm 2 m/s 744 mmHg 88%

    25 Mai, Vineri

    Timp Temperatura Precipitaţii Vânt Presiune Umiditate
    00:00 +18°C° 0,8 mm 1 m/s 744 mmHg 89%
    01:00 +18°C° 0 mm 1 m/s 744 mmHg 90%
    02:00 +16°C° 0 mm 1 m/s 744 mmHg 90%
    03:00 +16°C° 0 mm 1 m/s 744 mmHg 91%
    04:00 +16°C° 0 mm 1 m/s 744 mmHg 91%
    05:00 +17°C° 0 mm 2 m/s 744 mmHg 91%
    06:00 +17°C° 0 mm 2 m/s 745 mmHg 92%
    07:00 +18°C° 0,1 mm 3 m/s 745 mmHg 90%
    08:00 +18°C° 0,1 mm 4 m/s 745 mmHg 89%
    09:00 +19°C° 0,1 mm 5 m/s 746 mmHg 88%
    10:00 +19°C° 0,3 mm 5 m/s 746 mmHg 86%
    11:00 +20°C° 0,3 mm 6 m/s 747 mmHg 84%
    12:00 +20°C° 0,3 mm 6 m/s 747 mmHg 83%
    13:00 +18°C° 0,3 mm 7 m/s 747 mmHg 83%
    14:00 +18°C° 0,3 mm 7 m/s 748 mmHg 84%
    15:00 +17°C° 0,3 mm 8 m/s 748 mmHg 85%
    16:00 +16°C° 0 mm 7 m/s 749 mmHg 85%
    17:00 +15°C° 0 mm 7 m/s 749 mmHg 85%
    18:00 +14°C° 0 mm 7 m/s 750 mmHg 85%
    19:00 +12°C° 0 mm 7 m/s 750 mmHg 84%
    20:00 +11°C° 0 mm 7 m/s 751 mmHg 83%
    21:00 +11°C° 0 mm 7 m/s 751 mmHg 83%
    22:00 +10°C° 0 mm 7 m/s 752 mmHg 82%
    23:00 +10°C° 0 mm 7 m/s 752 mmHg 82%
    Arată mai mult